Regional Weather Roundup
Issued by NWS

Home | Current Version | Previous Version | Text Only | Print | Product List | Glossary On
Versions: 1 2 3 4 5 6 7 8 9 10 11 12 13 14 15 16 17 18 19 20 21 22 23 24 25 26 27 28 29 30 31 32 33 34 35 36 37 38 39 40 41 42 43 44 45 46 47 48 49 50
000
ASUS42 KFFC 091310
RWRGA
WEATHER ROUNDUP FOR GEORGIA
NATIONAL WEATHER SERVICE PEACHTREE CITY GA
800 AM EST FRI DEC 09 2016

NOTE: "FAIR" INDICATES FEW OR NO CLOUDS BELOW 12,000 FEET WITH NO
SIGNIFICANT WEATHER AND/OR OBSTRUCTIONS TO VISIBILITY.

* = USE WITH CAUTION. THE STATIONS MARKED WITH AN ASTERISK MAY NOT
REPORT WEATHER SUCH AS PRECIPITATION, FOG, OR THUNDER AND ARE NOT
QUALITY CONTROLLED BY NWS.

THE REMARK "TC" DENOTES TEMPERATURE READING IN DEGREES CELSIUS.

GAZ001>058-091400-
NORTH GEORGIA

CITY           SKY/WX    TMP DP  RH WIND       PRES   REMARKS
ATLANTA        PTCLDY    28  17  63 NW10      30.44R WCI  19
ATHENS         PTCLDY    28  18  66 NW6       30.41R WCI  22
CHAMBLEE       PTCLDY    27  14  58 NW10      30.44R WCI  17
PEACHTREE CITY PTCLDY    28  16  60 NW9       30.47R WCI  19
ROME           CLEAR     26  16  65 N7        30.50R WCI  18
WEST ATLANTA   CLEAR     27  15  61 NW8       30.47R WCI  19
GAINESVILLE    CLEAR     27  15  61 NW8       30.40R WCI  19
CARTERSVILLE   CLEAR     26  16  65 VRB3      30.49R


CITY           SKY/WX    TMP DP  RH WIND       PRES   REMARKS
DALTON*        PTCLDY    27  19  74 NW8       30.50S WCI  18
LAWRENCEVILLE* CLEAR     28  16  59 W12       30.43R WCI  18
MARIETTA       CLEAR     27  14  59 NW8       30.44R WCI  18
KENNESAW*      CLEAR     27  12  54 N9          N/A  WCI  17
CANTON*        CLEAR     27  12  54 W6        30.44R WCI  20
$$

GAZ059>098-102>109-091400-
CENTRAL GEORGIA

CITY           SKY/WX    TMP DP  RH WIND       PRES   REMARKS
AUGUSTA-BUSH   CLEAR     29  24  82 VRB3      30.42R
AUGUSTA-DANIEL CLEAR     34  22  61 NW5       30.41R WCI  30
COLUMBUS       CLEAR     31  15  52 N7        30.48R WCI  24
MACON          CLEAR     32  18  56 NW9       30.45R WCI  24
ROBINS AFB     CLEAR     32  19  59 N9        30.44R WCI  24


CITY           SKY/WX    TMP DP  RH WIND       PRES   REMARKS
LAGRANGE*      CLEAR     31  20  63 N7        30.47S WCI  24
SYLVANIA*      CLEAR    N/A N/A N/A NW5       30.42R
MILLEDGEVILLE* CLEAR     32  27  80 NW8       30.44R WCI  25
$$

GAZ099>101-110>166-091400-
SOUTH GEORGIA

CITY           SKY/WX    TMP DP  RH WIND       PRES   REMARKS
SAVANNAH       PTCLDY    39  27  62 N7        30.40R WCI  34
VALDOSTA       CLEAR     40  24  53 N13       30.41R WCI  32
ALMA           CLOUDY    38  24  57 NW6       30.41R WCI  33
ST SIMONS      MOCLDY    42  26  53 NW12G17   30.38R
FT STEWART     CLEAR     37  27  67 CALM      30.38R
ALBANY         CLEAR     36  20  52 N8        30.48R WCI  30
HUNTER AFB     CLEAR     39  30  69 NW7       30.37R WCI  34
MOODY AFB      CLEAR     38  26  62 N8        30.40R WCI  32
BRUNSWICK      MOCLDY    41  32  70 NW6       30.40R


CITY           SKY/WX    TMP DP  RH WIND       PRES   REMARKS
BAINBRIDGE*    PTCLDY    37  27  65 N8        30.46R WCI  31
MOULTRIE*      CLEAR     37  25  60 N7        30.44R WCI  32
VIDALIA*       CLEAR     36  30  80 N6        30.42R WCI  31
WAYCROSS*      CLOUDY    41  28  60 N7        30.42R
DOUGLAS*       CLOUDY    37  23  56 N7        30.44R WCI  32
$$




USA.gov is the U.S. government's official web portal to all federal, state and local government web resources and services.